Regional Weather Roundup
Issued by NWS

Home | Current Version | Previous Version | Text Only | Print | Product List | Glossary On
Versions: 1 2 3 4 5 6 7 8 9 10 11 12 13 14 15 16 17 18 19 20 21 22 23 24 25 26 27 28 29 30 31 32 33 34 35 36 37 38 39 40 41 42 43 44 45 46 47 48 49 50
000
ASUS43 KFSD 020810
RWRSD

WEATHER ROUNDUP FOR SOUTH DAKOTA
NATIONAL WEATHER SERVICE SIOUX FALLS SD
300 AM CDT MON MAY 02 2016

NOTE: "FAIR" INDICATES FEW OR NO CLOUDS BELOW 12,000 FEET WITH NO
SIGNIFICANT WEATHER AND/OR OBSTRUCTIONS TO VISIBILITY.


SDZ001>005-009-010-012>017-020900-
NORTHWEST AND NORTH CENTRAL SOUTH DAKOTA

CITY           SKY/WX    TMP DP  RH WIND       PRES   REMARKS
BUFFALO          N/A     43  30  60 W9        30.11F
FAITH            N/A     39  31  72 S13       30.15F
MOBRIDGE       CLEAR     47  35  63 CALM      30.12F
$$

SDZ012>016-024>037-041>051-057-063-072>074-020900-
SOUTHWEST AND SOUTH CENTRAL SOUTH DAKOTA

CITY           SKY/WX    TMP DP  RH WIND       PRES   REMARKS
RAPID CTY ARPT CLEAR     35  28  75 W7        30.20F WCI  29
PIERRE         CLEAR     40  34  79 W8        30.16F
CUSTER         CLEAR     28  23  81 W3        30.23S
ELLSWORTH AFB  CLEAR     38  30  73 W7        30.19F
PHILIP         CLEAR     37  32  82 W7        30.19F
PINE RIDGE     CLEAR     30  27  88 W5        30.22F WCI  25
WINNER         FAIR      39  31  72 SW7       30.19F
$$

SDZ004>011-016>023-039-040-020900-
NORTHEAST SOUTH DAKOTA

CITY           SKY/WX    TMP DP  RH WIND       PRES   REMARKS
ABERDEEN       CLEAR     38  32  79 S6        30.13F
WATERTOWN      CLEAR     40  35  83 CALM      30.13F
BROOKINGS      CLEAR     38  32  79 CALM      30.14F
SISSETON         N/A     45  32  60 W6        30.11F
$$

SDZ017-020-022-023-036>040-048>070-020900-
SOUTHEAST SOUTH DAKOTA

CITY           SKY/WX    TMP DP  RH WIND       PRES   REMARKS
SIOUX FALLS    CLEAR     36  33  89 CALM      30.15F
HURON          CLEAR     38  34  85 W8        30.15F
CHAMBERLAIN    CLEAR     41  38  87 CALM      30.18F
MITCHELL       CLEAR     41  36  82 W6        30.17F
YANKTON        CLEAR     37  34  87 W6        30.16F
$$

ABBREVIATIONS USED IN REMARKS
   TC - TEMPERATURE IN CELSIUS
  WCI - WIND CHILL INDEX
   HX - HEAT INDEX
  VSB - VISIBILITY




USA.gov is the U.S. government's official web portal to all federal, state and local government web resources and services.